Location: Tamazert
(32.6352°N, 5.2072°W)
Time: 16:31:10
(UTC+00:00)

Vanguard 3 - Pass Details

Date: 05 October 2022
Orbit: 509 x 3255 km, 33.3° (Epoch: 08 December)

Event Time Altitude Azimuth Distance (km) Brightness Sun altitude
Rises 13:25:20 0° 280° (W) 3,745 10.7 48.4°
Reaches altitude 10° 13:27:37 10° 273° (W) 3,055 10.5 48.1°
Maximum altitude 13:35:01 46° 202° (SSW) 2,118 12.1 47.3°
Drops below altitude 10° 13:47:48 10° 136° (SE) 5,164 11.4 45.8°
Sets 13:52:57 0° 131° (SE) 6,560 11.8 45.1°
